Location: Grums
(59.3529°N, 13.1129°E)
Time: 01:11:03
(UTC+01:00)

SEEDS - Pass Details

Date: 06 December 2021
Orbit: 584 x 600 km, 97.6° (Epoch: 27 January)

Event Time Altitude Azimuth Distance (km) Brightness Sun altitude
Rises 03:57:09 0° 21° (NNE) 2,828 ? -34.6°
Reaches altitude 10° 03:59:37 10° 34° (NE) 1,921 ? -34.3°
Enters shadow 04:00:59 17° 49° (NE) 1,495 ? -34.1°
